RH
68 72 72 72 75 77 79 81 82 81 79 78 78 77 76 75 74 72 73 75 75 77 79 77 76 78 78 77 75 75 80 81 79 82 85 85 84 81 77 77 81 80 78 77 73 70 72 70 68 70 70 65 62 62 64 65 63 61 60 60 60 60 60 59 58 55 55 56 54 50 51 56 59 62 61 59 62 63 63 66 66 64 62 62 63
63 69 71 71 73 75 76 77 80 80 78 78 77 76 76 76 75 73 72 74 75 75 78 79 78 78 78 78 78 77 81 84 82 81 84 86 86 84 79 77 81 80 77 78 77 73 74 73 69 70 71 67 64 62 61 63 62 60 61 61 58 59 61 60 59 56 56 60 59 55 57 60 58 61 63 58 59 64 66 68 69 68 66 62 59
60 66 70 70 71 73 73 73 75 76 75 75 73 72 73 75 76 75 71 71 74 75 75 77 79 81 80 80 81 80 82 86 84 81 84 87 86 82 79 79 83 82 77 79 80 76 74 74 69 69 71 69 65 62 59 61 62 59 61 62 59 59 63 62 61 59 58 59 59 55 57 62 62 63 66 64 62 65 69 72 71 67 66 66 61
55 63 67 68 69 71 72 71 71 72 71 70 69 67 68 71 74 75 72 69 71 75 76 76 79 83 82 81 83 83 83 87 86 83 84 87 85 81 79 81 84 84 81 79 80 77 75 74 69 66 70 70 66 62 59 60 62 60 61 64 62 60 63 66 64 63 61 58 58 56 55 59 63 64 68 69 69 72 74 72 69 66 67 68 65
49 57 62 63 64 67 69 68 67 68 67 65 64 64 63 65 68 72 72 69 68 72 77 78 79 83 84 82 84 84 85 87 87 84 83 85 84 80 79 82 84 84 83 80 78 78 75 73 68 66 70 72 68 64 61 60 62 62 61 64 66 64 63 68 69 67 65 62 60 60 60 61 62 63 67 69 69 73 78 76 72 70 70 68 64
46 52 57 59 60 63 66 65 63 64 65 62 61 60 60 60 63 67 70 69 68 70 75 79 80 82 85 84 84 85 85 86 88 85 80 80 82 80 78 82 83 83 83 81 78 78 76 73 69 67 70 72 68 65 64 64 64 63 63 64 67 67 66 69 71 69 68 65 62 62 63 64 63 63 70 72 66 66 70 72 73 75 77 75 68
46 49 52 55 58 60 62 64 63 61 62 62 60 59 58 58 58 62 66 68 68 67 71 78 80 81 84 85 84 85 85 85 87 87 82 79 81 81 78 79 82 83 82 80 77 76 76 74 70 69 72 72 68 66 67 67 66 65 65 65 68 69 68 69 70 69 68 66 64 62 61 62 63 63 71 78 73 68 66 64 66 73 80 83 78
45 47 50 54 57 58 59 63 64 63 62 64 63 61 60 59 58 59 63 66 67 66 68 75 80 80 83 85 84 84 85 85 86 89 87 81 80 81 80 79 80 82 82 79 75 73 74 73 69 68 72 73 69 67 69 70 68 67 67 67 69 69 68 68 69 68 66 65 63 61 60 62 64 65 72 79 76 70 70 68 65 67 74 78 79
45 47 50 54 57 59 60 62 66 66 65 65 67 65 63 63 62 61 63 67 68 67 66 71 78 80 81 83 84 83 83 84 84 85 87 84 81 80 81 80 79 80 81 80 76 74 73 72 68 65 69 73 69 65 69 71 68 67 68 69 70 71 69 68 69 68 66 64 63 62 60 61 63 65 69 74 73 68 69 72 70 67 69 72 74
45 47 50 54 58 60 62 64 66 69 69 68 70 70 67 66 66 65 66 69 71 70 69 70 74 77 79 81 83 82 81 82 81 80 82 83 82 81 81 81 80 79 80 80 78 75 73 71 69 66 67 71 68 62 63 66 64 64 69 72 72 73 72 69 68 68 66 63 62 60 59 59 59 61 65 68 69 69 70 71 71 68 68 68 66
46 48 50 54 58 62 65 67 68 72 73 72 73 74 72 70 70 70 70 71 74 74 72 72 71 73 76 79 80 80 79 78 78 79 79 79 80 82 82 82 82 81 80 81 79 76 74 73 72 70 68 69 68 63 59 61 61 60 64 71 72 70 71 70 68 67 66 62 60 58 57 57 55 59 65 63 61 67 71 71 71 68 64 61 58
46 50 51 55 60 64 67 70 71 73 75 75 75 76 76 74 74 75 74 74 76 77 76 75 74 72 73 75 76 77 76 74 74 78 80 79 79 80 81 81 82 81 80 82 81 76 75 75 74 74 73 70 69 67 62 61 62 59 59 66 69 66 67 70 69 68 66 62 60 59 58 58 58 60 61 56 56 65 71 70 71 67 61 60 59
45 52 54 57 62 67 70 71 72 74 76 77 77 79 79 77 76 77 76 76 78 78 77 77 76 74 73 73 74 75 74 73 73 75 79 81 81 80 80 80 81 81 80 81 82 78 76 76 76 76 76 73 70 71 69 64 63 62 58 61 66 65 64 67 69 69 68 65 62 61 60 60 62 61 61 62 62 64 66 67 66 63 62 64 64
44 53 58 59 64 70 72 72 73 75 77 78 79 80 80 79 78 77 76 77 78 77 76 76 75 74 73 72 72 73 73 73 74 74 76 81 83 81 81 82 82 81 80 81 81 80 78 78 78 78 79 77 72 73 77 73 67 63 61 63 68 69 66 66 67 67 68 68 67 64 63 65 67 65 68 74 72 67 65 64 62 63 67 69 69
44 52 58 61 65 70 72 72 73 74 77 78 79 80 79 79 79 77 74 75 75 73 73 73 72 73 72 71 70 70 71 73 74 75 76 78 81 84 84 84 84 82 81 82 81 80 80 79 79 79 80 79 73 72 79 83 76 70 71 72 73 73 71 70 69 68 68 69 68 64 63 68 72 71 75 79 76 73 73 70 69 71 70 67 66
45 50 58 61 64 68 70 71 72 72 74 77 78 78 78 78 79 77 74 73 72 71 70 69 69 71 71 70 71 69 68 70 73 75 76 77 80 85 86 86 85 84 82 83 83 82 80 81 81 79 79 79 74 70 75 82 82 78 77 76 73 71 70 70 70 70 69 69 69 64 62 67 73 74 75 77 78 79 76 72 72 71 66 62 58
48 51 58 61 61 65 68 69 70 70 72 75 77 76 77 78 79 79 76 73 70 69 68 67 66 67 68 70 73 70 66 68 70 71 72 75 79 85 88 87 85 84 83 81 81 80 80 82 82 80 79 79 76 71 73 78 81 81 77 73 71 67 64 67 72 72 72 72 73 70 66 68 71 71 70 71 75 77 71 65 63 62 60 58 53
51 54 57 58 58 62 65 66 68 70 71 74 75 75 76 76 77 78 77 73 70 67 67 67 66 65 65 67 70 70 66 67 69 70 71 74 77 84 89 87 84 84 84 80 77 78 78 81 83 81 80 80 76 74 74 75 79 83 77 71 70 66 63 70 78 79 77 77 78 77 73 70 69 68 68 71 73 70 66 60 53 50 52 50 45
49 52 54 55 57 60 63 65 67 69 71 72 73 73 74 73 74 76 75 72 70 67 65 65 65 64 63 63 66 68 66 65 67 70 72 74 78 85 89 86 82 83 83 80 77 77 78 80 82 81 80 80 77 76 76 73 76 83 78 69 68 68 66 70 78 84 85 82 80 80 76 70 70 72 74 75 67 59 60 61 53 47 47 44 39
46 49 51 52 56 60 62 64 67 68 70 71 71 71 71 70 70 72 72 69 69 67 64 63 63 62 61 62 63 65 66 65 65 67 70 73 78 85 88 84 81 82 82 77 74 77 78 78 81 82 81 80 79 80 77 72 74 81 78 69 69 71 67 68 75 84 87 84 83 84 80 76 78 79 79 75 61 50 57 62 54 47 47 42 38
48 50 52 52 54 59 62 64 67 68 69 71 70 68 67 68 69 70 69 67 67 67 66 64 62 60 60 60 61 61 63 65 66 67 69 72 76 83 86 83 80 81 81 76 72 74 74 73 75 80 83 81 80 82 79 72 72 79 78 72 70 70 68 70 77 83 84 81 80 82 82 81 80 78 76 70 58 51 57 59 52 47 45 42 40
50 54 55 53 53 58 63 65 67 69 69 70 70 68 66 67 69 69 67 66 67 69 69 66 62 59 59 59 60 60 61 65 67 68 70 72 75 80 85 83 80 80 79 76 73 72 72 73 74 78 83 83 81 82 80 74 71 73 74 72 72 71 70 73 81 84 81 78 77 78 77 77 73 69 66 60 54 53 55 54 50 46 44 43 46
54 58 59 57 55 58 64 66 68 69 70 70 70 70 69 68 68 70 70 69 69 70 70 68 65 61 59 59 59 60 62 65 68 69 71 74 76 78 82 83 83 81 78 76 75 73 72 74 74 76 81 83 82 81 80 77 71 69 74 78 76 73 74 76 82 83 78 75 78 78 76 73 68 62 57 52 51 53 52 49 48 48 47 48 51
59 60 60 60 58 58 62 66 69 69 70 71 71 70 70 69 69 72 74 72 70 69 68 68 68 65 63 61 60 62 64 67 70 71 72 74 77 79 81 82 84 84 80 76 75 74 72 71 73 77 82 83 82 81 81 79 72 68 75 81 78 75 78 79 81 82 79 78 80 80 77 71 63 56 53 50 49 52 51 49 51 52 53 55 58
62 61 60 61 61 60 61 66 70 70 69 70 72 72 71 72 72 73 73 71 71 69 66 66 66 66 66 65 63 64 65 67 72 75 74 74 76 79 82 83 84 85 84 79 74 73 72 70 71 79 84 83 82 83 81 79 74 70 74 79 77 79 84 82 81 83 83 82 83 80 76 70 60 54 54 52 52 56 55 53 55 57 58 62 65
62 62 60 61 62 62 63 65 68 70 70 69 71 72 72 73 73 73 70 69 70 70 68 66 65 66 68 67 65 66 67 69 76 80 79 78 78 79 81 84 85 85 85 83 78 74 74 73 74 80 85 85 85 85 82 79 77 75 75 76 77 83 87 85 84 86 86 83 81 78 74 67 58 56 59 60 61 63 60 57 58 59 60 64 66
66 66 66 66 66 65 65 64 66 69 69 69 69 70 70 70 71 71 69 67 67 67 68 68 66 66 67 67 66 68 68 70 77 83 84 82 81 82 84 87 88 88 88 88 85 82 81 79 78 81 86 88 87 85 82 80 80 81 81 79 80 87 91 87 85 87 84 80 78 77 72 62 57 63 70 69 67 65 62 59 60 59 57 58 61
71 70 70 69 68 66 66 67 67 66 67 68 67 64 64 64 65 67 68 68 67 66 66 67 67 66 67 66 66 67 68 69 74 82 85 83 83 86 88 88 90 91 90 91 92 91 90 87 85 87 91 93 93 91 88 87 87 87 86 84 86 90 92 89 87 87 84 80 78 76 67 58 61 70 73 67 63 62 61 61 62 60 55 53 55
74 72 68 65 65 64 64 66 66 62 63 65 65 65 64 62 60 62 64 65 66 65 64 65 65 64 63 62 62 64 66 67 70 77 84 84 81 83 86 87 89 91 90 92 97 98 97 96 95 96 98 98 98 98 98 97 96 93 91 91 92 93 93 93 91 88 86 83 78 70 62 60 64 67 62 57 58 60 62 65 65 64 60 55 53
72 70 67 67 68 67 64 64 65 63 62 62 63 66 68 67 64 63 63 65 67 67 66 66 65 65 65 65 65 65 66 68 69 74 82 85 82 82 83 83 87 90 92 96 99 100 99 99 99 100 100 100 100 100 99 100 100 99 98 97 95 94 96 96 91 88 87 83 74 66 64 63 62 57 52 53 57 59 64 68 68 67 65 58 52
70 68 68 72 77 76 71 71 72 71 69 68 66 64 64 67 69 69 68 70 72 72 73 73 72 72 72 73 74 73 71 71 71 74 81 86 85 84 83 85 89 93 96 98 100 99 99 100 100 100 100 100 100 99 99 99 99 99 98 97 96 96 96 94 90 87 87 81 71 66 63 59 55 53 51 52 55 57 63 69 68 65 63 57 49
63 63 66 71 77 78 76 77 78 76 74 75 74 71 68 68 70 72 74 76 77 79 80 81 82 82 82 82 84 83 80 78 76 77 81 86 87 85 85 88 93 96 97 98 99 100 99 99 100 100 100 100 100 99 98 99 99 98 98 98 97 96 94 92 89 86 84 78 68 61 58 53 52 53 53 52 52 54 59 65 65 60 57 53 47
63 63 66 69 73 75 74 76 77 76 77 77 76 74 72 69 68 69 72 74 77 79 81 81 81 81 81 81 83 85 85 84 84 84 85 87 88 87 87 92 97 98 98 99 100 100 100 100 99 100 100 99 100 99 99 100 99 99 99 100 99 97 94 91 88 83 78 73 63 56 54 53 51 52 53 52 52 52 54 58 58 54 52 50 46
72 73 76 77 77 77 77 77 76 75 77 79 76 73 73 72 70 70 70 69 69 71 72 73 74 76 78 80 83 86 88 88 88 90 92 92 91 89 90 95 99 98 98 100 100 99 99 100 100 100 99 98 98 99 99 100 99 99 99 98 97 96 93 90 89 82 74 67 59 54 55 53 51 52 53 52 53 54 52 49 47 46 46 46 45
74 77 81 82 80 78 78 78 77 76 76 78 76 74 73 72 72 72 71 69 68 68 69 71 74 80 85 90 92 93 94 94 94 96 97 97 95 94 95 98 100 99 99 100 99 97 98 100 100 99 99 99 99 99 99 99 100 100 98 96 95 93 89 88 88 82 72 63 58 55 55 54 53 53 54 54 55 55 49 43 42 42 43 45 45
71 72 76 79 78 78 78 77 77 78 78 77 76 74 72 72 70 69 69 71 71 72 73 74 77 80 85 91 93 90 86 87 90 94 98 99 98 99 99 100 100 99 99 100 99 97 98 99 99 99 100 99 99 98 98 98 99 98 96 94 94 91 87 86 84 78 69 63 60 58 58 58 57 56 55 55 55 51 46 43 44 43 43 44 43
73 73 75 77 75 75 76 76 77 80 80 77 75 73 72 72 72 71 70 72 74 75 75 76 79 81 84 91 95 90 84 85 88 92 97 100 99 99 100 99 99 99 100 100 100 99 99 100 100 100 99 97 96 97 96 95 96 96 95 94 92 89 87 85 80 74 69 66 63 62 62 61 60 59 56 51 47 45 44 44 44 43 42 41 40
80 81 83 83 78 74 74 75 75 75 75 74 74 74 72 71 72 72 72 73 75 75 74 75 78 80 83 88 94 94 92 92 95 97 99 100 99 100 100 99 99 100 99 98 99 99 100 100 99 98 97 96 96 96 95 94 95 96 95 93 90 87 85 82 76 72 70 67 64 64 64 61 59 59 55 47 43 43 44 44 42 41 40 39 37
80 83 86 85 79 75 75 76 74 72 71 72 73 74 72 71 70 70 71 73 75 75 76 78 80 83 85 89 93 93 90 89 92 96 98 99 99 100 99 99 99 99 98 98 99 100 99 99 100 99 98 98 97 96 95 95 96 95 92 90 87 85 81 78 76 76 72 66 63 66 64 58 54 52 49 45 44 44 44 43 40 38 37 38 38
79 81 84 83 78 74 74 75 75 73 72 71 70 69 70 72 73 71 70 74 77 79 81 83 84 89 95 96 95 91 86 84 87 92 94 97 99 100 99 98 98 98 99 99 99 100 100 101 100 96 92 93 95 95 96 96 95 92 90 88 85 83 79 77 78 77 70 63 62 63 60 55 52 49 46 45 44 43 42 42 40 37 36 37 37
80 81 82 82 79 74 71 72 75 76 77 75 72 71 72 74 75 74 73 74 77 80 84 86 88 94 99 99 95 90 85 83 87 89 91 94 98 99 99 100 99 99 101 100 100 100 96 91 88 86 86 90 94 96 97 96 94 92 90 86 83 81 78 75 74 72 65 60 59 59 56 54 52 49 47 46 44 42 41 40 40 39 38 37 36
81 82 82 82 81 78 76 76 77 79 79 76 74 75 76 76 76 77 76 75 76 78 82 87 93 98 99 97 94 90 85 85 89 91 92 94 92 89 90 93 95 97 98 98 96 95 89 83 83 88 93 96 97 97 96 95 93 91 88 83 79 77 72 68 66 64 60 57 57 56 54 53 51 48 47 46 43 41 40 40 40 40 40 38 37
78 79 79 80 81 81 82 82 81 80 80 77 74 76 78 77 76 78 78 77 77 78 80 86 94 96 95 94 93 88 84 85 90 93 94 94 93 91 92 95 95 95 96 95 94 91 87 86 91 95 95 95 95 93 92 91 89 86 82 77 74 71 65 61 61 60 57 56 55 54 53 51 49 48 47 45 42 41 41 41 41 41 40 39 38
70 70 72 75 77 79 81 83 83 82 83 82 78 76 75 73 73 74 77 80 81 79 78 82 87 88 87 87 87 82 79 81 85 88 90 92 93 93 95 96 96 94 94 95 95 92 89 89 91 91 90 90 91 90 87 85 82 77 73 71 70 66 61 59 58 57 56 54 54 53 52 50 48 47 45 43 42 43 42 43 44 43 41 40 39
62 62 64 67 70 73 76 80 81 80 81 80 79 77 76 74 71 71 73 78 82 82 81 85 88 87 83 81 80 79 78 78 78 80 82 84 85 87 89 91 92 93 93 93 92 89 88 88 88 87 86 87 86 84 82 79 73 69 68 69 67 62 59 57 55 55 55 53 52 51 50 48 46 46 44 43 45 46 44 44 45 44 43 41 39
60 60 59 61 64 68 71 74 76 77 78 78 78 77 77 77 76 74 74 76 79 83 87 91 94 92 86 79 76 77 79 78 75 73 72 72 74 79 85 90 92 92 92 91 89 87 87 87 87 86 85 85 83 80 77 74 72 69 68 68 64 59 56 55 54 54 55 53 50 49 47 46 46 46 45 44 46 46 45 44 44 43 43 41 40
64 65 65 65 66 68 70 71 72 73 73 75 77 78 79 81 81 80 80 80 80 80 82 87 93 97 93 85 79 78 79 78 75 74 73 73 74 78 84 87 89 90 92 92 89 87 87 86 85 84 84 83 81 78 75 73 71 69 66 63 60 56 55 54 54 54 53 51 49 47 45 45 46 46 46 46 45 45 45 44 42 42 43 42 40
65 67 70 70 70 71 71 72 73 75 75 75 76 77 79 82 83 84 84 86 86 85 82 82 88 94 94 88 85 83 81 76 73 73 73 76 82 87 87 83 80 82 86 88 86 85 84 83 82 81 80 79 78 76 74 71 67 64 61 59 56 55 54 54 54 53 52 51 49 47 46 46 46 45 45 45 44 42 42 41 39 40 43 43 41
63 65 67 69 69 70 71 71 74 78 81 81 81 81 82 83 85 87 87 87 89 91 88 84 86 91 92 91 90 91 88 82 78 76 75 78 85 91 92 86 80 77 78 80 81 81 81 81 81 79 78 77 75 73 70 66 63 60 58 56 55 54 54 54 54 53 51 50 50 47 45 45 46 45 43 43 41 40 40 38 37 40 42 42 40
59 60 62 63 64 66 68 70 73 77 80 82 83 85 87 90 93 95 93 89 88 90 92 93 93 95 97 96 96 96 93 88 83 80 82 84 86 87 88 87 84 80 77 77 78 78 78 79 79 77 75 74 72 69 66 63 61 59 57 55 55 54 54 53 53 52 50 49 48 47 46 46 47 46 45 44 44 44 43 42 42 42 42 40 39
56 56 56 57 58 59 62 65 68 71 74 76 78 80 85 92 96 99 99 96 92 91 95 98 98 97 97 97 96 95 93 90 88 87 87 89 88 86 86 87 85 81 79 78 77 76 76 76 74 73 72 71 69 67 64 62 60 58 56 56 57 55 52 50 50 50 48 48 48 47 47 47 48 48 48 47 46 46 46 45 44 43 41 39 38
Wind_Speed
33 33 33 33 32 32 33 33 33 31 29 29 28 27 27 26 26 24 23 23 23 23 23 23 22 22 21 21 21 21 21 21 20 20 21 21 20 19 19 19 19 20 18 17 16 15 15 15 15 14 13 12 12 13 13 13 13 12 12 12 11 11 10 9 7 5 5 4 4 4 4 5 5 7 8 7 7 7 7 6 6 6 6 7 8
35 33 33 33 34 34 34 33 33 33 31 30 30 29 28 28 28 26 25 25 25 25 24 24 24 23 23 22 22 22 22 22 21 21 22 22 21 20 20 20 21 20 20 19 17 16 16 16 16 15 14 14 14 14 13 14 14 14 13 13 13 12 12 11 9 7 6 5 6 6 6 6 6 6 7 8 7 7 7 7 7 7 7 8 8
35 34 33 34 35 34 33 33 33 33 33 32 32 31 30 29 28 28 28 27 26 27 26 25 24 24 24 23 23 23 22 22 22 22 22 23 23 21 21 21 22 21 21 20 19 17 17 17 17 17 16 16 16 15 15 15 15 14 14 14 13 13 12 12 10 8 7 7 7 7 8 7 7 6 7 7 7 7 9 9 8 8 8 9 9
34 34 34 35 35 33 33 32 32 33 33 33 33 33 31 29 29 30 30 29 28 28 27 26 25 25 25 25 24 24 23 23 23 23 23 24 24 23 22 22 22 22 21 21 20 19 19 18 19 18 18 18 17 17 16 16 16 15 15 14 14 13 12 13 12 10 8 7 8 7 7 7 7 7 7 7 7 8 9 9 9 9 9 9 8
33 34 34 34 34 34 34 34 33 34 34 34 33 33 31 30 30 30 31 31 30 28 27 27 27 26 27 26 26 25 25 24 24 24 24 24 24 24 24 23 23 22 22 22 21 21 20 20 20 20 20 19 19 18 18 17 17 16 16 16 15 14 13 13 13 12 10 9 8 8 7 7 7 8 8 8 8 8 8 9 9 9 9 9 9
34 34 33 33 34 35 35 35 35 35 35 34 33 32 33 32 31 31 31 31 31 29 28 28 28 28 27 27 27 27 26 26 26 26 25 25 25 25 25 24 24 23 23 23 23 22 22 22 21 21 22 21 20 19 19 19 19 18 18 17 16 15 14 13 12 12 11 10 9 8 8 8 8 8 9 9 9 9 9 9 10 10 9 8 8
33 34 33 33 34 35 36 36 36 36 35 34 33 32 33 34 33 32 31 31 31 31 30 29 29 29 28 27 27 27 27 27 26 27 27 26 26 26 26 25 24 24 24 24 24 24 23 23 23 23 24 23 22 21 21 21 20 20 20 19 17 16 15 14 13 12 12 11 10 9 8 8 9 9 9 10 9 9 10 10 9 9 9 8 8
33 33 33 32 34 36 36 35 35 35 35 33 33 33 34 34 34 32 31 30 31 32 31 30 29 28 28 28 28 28 28 28 28 27 28 28 27 26 26 25 24 23 24 24 25 24 24 24 24 24 25 25 24 23 22 22 21 20 20 19 18 17 15 14 13 13 12 11 11 10 9 9 9 9 9 10 10 10 10 9 8 7 7 7 6
33 33 33 33 34 34 33 32 32 33 33 33 34 34 34 33 33 32 31 31 30 31 31 30 29 28 28 28 29 29 28 29 29 30 29 29 28 27 26 26 25 24 23 24 25 25 25 25 25 26 26 27 28 26 24 24 23 21 20 21 19 18 17 15 14 14 13 12 11 11 10 10 10 10 10 11 11 10 8 8 7 6 6 6 6
32 32 33 33 31 30 31 31 31 32 33 34 34 34 33 33 32 32 32 31 29 29 29 29 29 29 29 29 29 29 29 29 31 34 34 31 28 27 26 25 26 25 24 24 25 26 26 26 26 27 28 29 30 30 28 28 27 23 21 21 21 20 18 17 16 15 14 13 13 12 11 11 11 11 12 12 10 9 8 7 7 7 6 7 7
30 32 32 30 28 29 30 31 31 32 33 33 32 32 32 31 31 31 31 30 29 29 29 30 30 28 28 29 29 30 30 30 33 36 38 36 31 27 25 25 25 25 25 24 25 26 26 25 25 26 29 32 32 32 31 30 29 27 24 23 23 22 19 18 17 16 15 14 13 13 12 11 11 10 11 11 10 9 8 8 7 7 7 8 8
30 31 30 28 28 29 29 30 30 31 32 32 31 31 30 30 29 30 30 31 29 28 28 29 29 28 27 28 29 30 30 32 35 37 39 40 38 30 25 24 25 26 26 26 25 25 25 25 24 24 28 33 33 32 32 31 30 29 27 25 25 23 21 19 17 16 15 14 13 13 12 11 11 10 11 11 9 9 9 8 8 8 8 7 6
29 28 28 27 28 28 28 29 30 30 30 30 29 29 30 31 31 30 31 30 29 29 29 29 29 29 28 28 29 29 29 32 37 39 39 41 42 37 28 24 25 26 26 26 26 25 25 24 24 23 24 30 33 30 30 32 31 29 28 27 26 25 23 22 20 18 16 14 14 14 13 11 10 10 10 9 8 9 10 9 9 8 7 5 5
28 27 28 29 29 29 29 29 30 29 29 29 29 29 31 32 32 31 30 29 30 31 30 29 31 31 30 30 30 29 29 31 36 40 41 40 42 42 35 26 24 25 26 26 25 25 26 25 25 23 23 28 33 30 26 28 30 29 28 28 26 24 24 25 24 22 19 16 15 15 13 12 10 9 9 10 9 9 9 9 8 6 5 5 5
28 27 29 30 30 30 30 31 30 29 29 28 29 30 31 32 32 31 29 29 30 32 30 30 33 34 31 31 32 32 31 32 35 38 41 41 41 43 39 31 25 25 25 25 25 26 27 27 27 25 24 27 33 31 25 23 25 26 26 25 23 21 21 23 24 24 22 19 16 15 14 13 11 10 10 11 9 8 7 6 5 4 4 4 5
28 28 28 30 31 31 31 31 30 29 29 28 30 31 32 32 31 30 29 27 28 30 30 31 33 33 32 32 33 34 33 33 34 37 40 41 40 42 42 35 30 28 26 25 25 26 27 29 28 28 27 28 32 33 28 23 21 23 23 21 20 19 18 20 22 23 22 20 18 17 15 14 14 12 12 11 9 7 7 6 5 5 5 4 4
28 28 28 30 30 29 29 29 28 28 27 28 30 31 31 30 29 27 27 26 27 29 29 30 31 31 33 33 34 35 34 34 35 37 39 40 41 43 43 38 33 31 29 27 26 27 30 30 29 28 28 28 31 33 32 27 22 22 22 20 19 18 17 18 21 24 24 22 20 19 18 17 17 15 13 13 11 9 8 8 7 7 6 4 3
29 28 27 26 26 25 26 26 26 26 27 29 30 29 28 27 26 26 26 26 27 27 27 28 28 29 32 34 34 34 34 33 36 38 40 41 43 45 42 38 36 33 30 29 29 29 32 33 32 30 27 28 31 33 33 31 25 22 22 21 19 19 18 17 18 21 24 23 21 21 19 18 17 15 14 13 13 12 10 8 8 7 6 4 3
27 25 23 22 22 23 24 25 26 28 29 29 28 26 25 24 24 25 26 26 26 26 25 26 26 28 31 33 34 35 34 34 36 39 40 42 45 45 40 37 37 34 30 30 30 30 31 33 35 35 29 28 32 34 34 34 28 23 23 22 20 20 20 18 17 19 22 22 21 21 21 19 16 15 14 14 13 13 11 9 7 6 6 4 3
22 22 22 22 23 24 25 27 28 28 28 27 26 25 25 24 24 25 25 25 24 25 26 26 26 28 30 31 32 35 35 35 36 39 40 42 46 46 40 37 37 35 31 30 29 28 29 30 34 37 35 33 33 33 34 35 31 25 24 24 22 21 21 21 20 20 20 20 19 18 18 17 15 14 14 14 14 14 13 11 8 7 7 5 4
20 21 22 23 23 24 24 25 26 25 24 23 23 24 24 24 24 25 24 24 24 25 26 26 26 28 29 29 31 34 36 36 37 38 41 44 47 47 43 38 37 34 31 30 29 28 29 30 32 34 36 37 35 32 32 35 33 28 26 25 24 22 21 21 21 21 21 20 19 17 15 15 14 13 13 13 14 14 13 12 10 8 7 5 4
18 19 21 22 22 22 22 22 22 22 22 22 22 23 24 23 24 25 24 24 24 25 26 26 26 28 29 30 32 34 35 36 37 39 41 44 48 50 48 43 38 34 30 30 30 29 28 29 29 30 35 39 38 34 31 33 34 32 28 26 24 22 22 21 21 21 21 20 20 18 16 16 16 15 14 13 14 14 14 13 11 9 7 5 4
14 16 18 19 20 19 19 20 20 20 21 23 23 24 24 24 24 24 24 23 23 25 26 26 27 27 28 30 32 33 33 35 38 42 43 43 47 51 52 48 42 38 34 32 32 30 27 27 28 31 34 39 40 36 32 31 35 34 30 26 25 25 24 21 20 21 22 21 20 18 17 18 17 16 15 14 14 15 13 12 11 10 7 6 6
11 13 14 16 17 17 17 18 19 20 21 22 23 23 23 24 23 23 23 23 23 25 26 26 26 27 27 29 31 32 33 34 38 44 47 47 47 51 54 53 49 44 38 33 31 30 27 27 30 34 36 38 39 37 33 32 35 37 33 28 27 26 25 23 23 23 22 21 20 19 18 19 18 16 15 14 14 15 13 11 11 10 8 7 7
9 11 12 13 15 16 15 16 17 19 19 20 21 22 22 22 22 22 24 24 24 26 27 26 26 26 27 29 31 32 32 32 33 41 48 50 50 51 53 56 55 52 45 38 34 32 30 31 32 34 36 37 37 36 35 35 36 38 36 30 28 28 27 26 25 24 22 21 21 20 19 19 18 16 15 15 14 15 13 11 10 9 8 8 8
9 10 11 12 13 15 15 15 16 17 18 19 19 20 20 21 21 22 24 25 25 26 26 26 26 26 26 29 31 31 30 29 30 36 44 48 50 53 55 56 58 58 52 44 36 32 31 33 36 35 36 38 38 38 39 39 39 38 36 33 31 30 30 29 28 26 23 22 22 22 20 19 17 16 16 16 15 15 14 12 10 9 8 8 9
8 9 9 10 11 12 13 14 14 15 17 18 18 19 20 21 22 23 24 24 24 25 25 25 26 25 25 29 31 29 29 29 29 33 41 47 50 52 54 56 56 57 56 49 41 36 33 34 37 38 37 38 39 40 41 42 41 38 37 36 33 30 29 30 29 28 26 24 23 23 20 18 17 17 17 17 15 14 14 13 11 10 9 10 10
7 8 8 8 9 10 11 11 12 12 14 15 17 18 19 21 22 22 23 24 23 24 25 25 26 26 26 28 28 26 28 31 32 33 40 48 50 50 52 56 57 59 61 55 44 36 34 35 36 37 37 38 39 40 41 43 43 41 39 37 33 29 28 29 28 28 27 24 22 21 20 19 19 18 18 17 15 14 14 13 11 10 10 10 11
7 7 7 7 7 8 8 9 10 11 12 13 15 16 17 19 20 20 22 24 25 26 25 24 26 27 27 28 28 26 27 31 34 35 38 44 49 51 53 57 58 60 63 56 38 26 29 35 37 37 38 38 37 35 34 36 37 36 35 33 31 29 28 29 29 28 26 23 20 19 19 19 19 18 17 16 14 13 13 13 12 11 10 11 12
7 7 6 6 6 6 6 7 7 9 10 11 12 14 15 19 21 22 22 22 24 26 28 28 29 29 27 27 27 28 29 30 32 34 36 41 47 51 52 55 57 57 57 50 35 26 29 35 36 36 37 37 34 30 29 30 32 31 32 33 33 30 29 29 29 28 25 22 20 19 19 19 18 17 16 15 14 13 13 13 12 12 12 12 13
6 6 6 5 5 4 3 3 3 4 6 7 9 10 12 15 19 21 23 24 25 26 29 31 33 34 32 31 29 31 32 32 31 33 36 40 45 48 51 54 54 51 49 44 36 32 34 37 36 36 37 37 34 32 32 34 35 35 36 36 35 32 31 30 29 27 25 22 20 19 19 18 17 17 16 15 14 13 13 13 13 13 13 13 14
6 7 7 6 6 5 4 3 2 1 2 3 5 6 8 10 11 12 16 19 22 25 27 29 32 34 36 36 35 35 36 36 35 36 37 40 43 46 50 52 51 50 51 49 39 35 37 37 33 34 35 34 33 33 34 35 34 34 35 34 33 32 32 31 29 26 24 22 20 19 19 18 17 17 16 15 14 14 13 13 14 14 14 14 14
8 8 7 6 6 6 5 4 3 2 1 2 2 3 5 6 7 7 9 12 15 19 22 26 29 33 36 38 40 41 41 41 41 40 40 41 43 44 48 51 51 52 54 49 37 33 35 36 33 34 34 32 32 34 33 32 31 30 31 31 31 31 30 29 28 25 22 21 21 19 18 18 17 16 16 15 14 14 14 15 14 14 15 15 14
10 9 9 7 7 6 6 6 5 4 4 3 3 3 4 5 6 7 8 9 11 14 17 20 23 25 29 32 34 37 41 43 45 45 44 44 44 45 48 51 52 55 56 51 40 35 35 34 34 36 36 35 35 36 34 34 33 32 31 30 29 29 28 27 27 24 21 21 21 19 18 18 17 16 16 14 14 15 16 17 16 16 17 16 14
7 8 8 8 6 6 7 6 6 6 6 5 5 5 4 5 6 6 7 8 10 11 14 16 16 18 22 26 28 31 34 37 40 42 43 44 46 47 46 45 46 50 51 47 41 39 37 33 32 34 34 35 35 34 32 32 32 32 32 31 30 29 28 26 25 23 21 21 21 19 18 18 17 17 15 14 14 16 18 17 16 16 17 16 14
6 6 7 7 7 7 7 7 7 7 6 6 5 5 5 5 6 7 7 9 10 11 13 14 15 18 22 24 26 28 29 31 34 36 37 40 45 46 44 40 39 42 42 39 37 38 36 33 33 33 32 32 33 32 31 31 30 32 34 33 31 30 27 24 23 23 22 22 21 19 18 18 17 16 15 15 16 18 18 16 15 16 16 15 14
8 8 8 8 8 8 7 7 7 6 5 5 5 5 5 6 7 7 8 9 10 11 13 14 15 17 18 18 21 24 25 26 28 30 31 33 38 44 46 42 41 40 36 33 34 35 33 32 33 34 34 36 36 35 35 34 33 33 34 33 32 29 26 25 25 25 23 21 20 19 19 18 16 16 15 16 17 17 17 16 15 15 15 14 13
10 11 10 8 8 8 7 7 7 6 5 5 6 6 6 7 7 8 9 10 10 11 11 11 13 15 17 18 19 20 20 20 18 18 19 20 27 37 39 35 36 37 35 34 35 35 34 34 36 36 37 37 37 36 36 35 33 32 32 31 29 28 27 26 26 26 23 21 19 19 18 17 16 15 15 16 16 16 17 16 15 15 14 14 14
9 11 11 9 7 7 8 7 6 6 6 5 6 6 7 7 8 9 10 10 10 10 11 11 12 14 16 18 18 17 16 14 11 8 8 10 20 27 25 21 23 27 30 33 35 34 34 36 37 38 37 37 36 35 35 35 34 33 32 30 28 27 27 26 24 23 23 21 19 18 18 17 16 16 16 16 16 16 16 16 15 15 15 14 15
8 9 11 11 8 7 8 7 6 6 6 6 6 7 7 7 8 9 9 10 9 9 10 11 12 14 15 16 16 15 13 11 8 5 4 7 14 19 21 24 27 28 29 32 34 35 35 35 35 36 36 34 34 35 35 35 34 33 32 30 28 26 26 24 22 22 23 21 19 18 18 17 16 16 17 17 16 16 16 15 15 15 15 14 14
9 9 10 11 10 8 7 7 7 7 7 7 6 7 7 7 7 8 8 8 8 9 10 10 11 13 14 13 11 10 8 7 5 4 5 8 10 9 10 14 19 23 27 32 35 38 39 36 34 34 33 32 33 34 34 34 32 32 31 30 26 24 23 22 22 23 22 21 19 18 17 17 16 16 17 17 16 15 15 15 14 15 15 14 14
11 11 11 11 11 10 9 8 8 7 7 7 7 7 8 8 8 7 8 7 7 7 7 7 9 11 11 11 10 10 9 8 8 9 11 14 16 16 17 16 15 16 21 27 33 37 38 36 33 32 33 33 33 32 32 31 29 29 29 27 24 22 23 22 21 22 22 20 19 18 17 16 17 16 16 16 16 16 16 15 14 14 15 15 14
11 11 11 11 11 11 10 10 9 9 9 9 8 8 8 8 8 8 7 7 6 6 5 5 7 9 9 9 9 10 10 11 11 11 11 12 15 18 20 21 21 20 21 23 27 30 32 31 29 28 29 30 29 29 29 29 28 27 26 25 22 22 22 21 20 21 21 19 18 17 17 16 17 16 16 16 16 16 15 15 14 14 14 15 14
10 11 11 11 11 11 11 11 10 10 10 9 8 8 8 8 7 8 8 7 6 6 4 4 5 6 5 5 7 8 8 9 10 10 10 10 13 15 17 19 20 21 20 20 21 25 29 28 25 24 24 24 25 26 27 28 28 27 25 23 22 21 21 21 21 21 21 19 18 17 17 17 17 17 17 17 17 16 15 15 15 15 15 14 14
11 11 11 12 12 12 12 12 12 11 11 10 9 9 8 8 7 7 7 7 7 6 6 5 6 6 4 3 4 6 7 6 6 7 7 8 9 11 13 14 15 16 17 18 20 24 28 26 23 22 22 22 24 26 26 26 26 26 24 22 22 22 21 21 20 20 20 19 17 17 17 17 17 17 17 17 16 16 15 14 15 15 15 15 15
14 13 14 14 14 14 14 14 13 13 12 11 11 10 9 9 9 8 8 7 7 7 6 5 5 6 6 3 3 4 5 5 4 4 4 5 6 7 9 10 11 12 15 18 19 21 24 23 21 21 22 22 23 24 23 23 23 22 21 20 21 21 21 20 19 19 19 18 17 17 17 17 17 17 17 16 15 15 15 14 15 15 15 15 15
15 15 16 16 16 16 16 15 16 15 14 13 13 12 11 10 10 9 9 9 8 7 6 5 4 5 6 5 3 3 4 4 4 4 4 5 5 7 8 10 10 10 13 17 19 20 20 20 20 20 22 23 22 21 21 21 21 20 19 19 20 20 20 19 18 18 18 18 17 16 16 16 16 16 16 15 15 14 14 14 15 14 15 15 15
16 15 15 15 15 16 16 16 16 16 17 17 16 15 15 14 12 11 11 10 10 9 8 6 4 5 6 7 6 6 5 5 3 2 3 3 4 7 9 10 10 10 12 15 17 17 17 18 19 20 21 22 21 20 19 19 19 19 19 19 19 19 20 20 18 17 17 17 17 16 15 15 15 15 15 16 16 15 15 15 16 15 15 15 14
16 16 16 15 15 16 17 17 16 16 17 17 17 18 18 18 17 16 14 13 12 11 10 8 7 7 7 8 8 8 8 7 5 2 1 1 3 7 9 10 10 10 12 13 15 15 16 17 18 18 19 20 20 19 19 19 19 19 19 19 20 21 22 21 19 17 17 17 16 15 15 14 14 14 14 15 15 15 16 16 16 16 15 15 14
18 18 18 18 17 17 17 17 17 17 17 17 17 18 19 19 20 20 19 17 16 15 13 10 9 9 8 8 8 10 11 10 7 5 3 1 3 5 6 7 7 8 10 12 13 14 14 15 16 17 18 18 19 18 18 19 19 19 19 21 22 23 24 22 20 19 18 16 15 14 14 13 12 13 13 13 14 15 16 16 16 16 15 15 14
20 20 20 21 20 19 19 19 18 17 17 17 18 18 18 18 20 21 20 20 20 19 17 15 13 13 13 13 12 12 14 14 12 10 8 4 1 3 3 4 4 4 6 8 9 10 11 13 14 15 16 17 17 18 19 19 19 19 21 22 24 24 23 22 21 21 19 16 14 13 13 12 12 12 12 12 13 15 15 16 16 15 15 15 14
Wind_Direction
197 198 200 202 203 203 204 205 207 208 209 209 209 211 212 212 214 215 213 213 213 213 214 213 211 210 210 211 211 212 213 215 216 216 217 217 212 210 212 214 217 219 219 215 211 209 208 207 207 205 203 206 207 207 204 202 202 203 205 205 205 207 208 217 234 234 216 212 221 219 204 200 208 213 219 222 223 223 220 222 232 239 244 247 250
197 198 199 201 203 203 203 204 205 206 208 209 210 211 211 211 212 212 213 214 214 214 214 213 211 209 210 210 209 210 210 212 213 213 215 215 211 210 212 212 214 217 218 216 211 207 207 208 207 204 204 207 208 209 207 203 203 203 204 204 204 204 204 209 222 230 217 202 211 215 204 211 220 212 219 227 221 217 222 225 230 239 247 254 258
197 197 198 202 204 204 203 204 204 205 206 208 210 212 212 211 210 210 213 215 215 215 215 213 210 208 209 209 208 209 209 210 212 212 213 214 212 212 212 210 211 214 216 216 210 207 207 208 208 205 203 206 208 210 209 206 205 206 204 205 208 205 202 206 213 219 221 210 207 211 204 206 216 212 213 223 224 224 226 228 236 247 252 257 265
196 196 198 202 203 202 204 205 205 206 207 209 211 211 211 210 210 210 212 214 215 215 214 213 210 207 207 208 206 208 209 209 211 213 212 213 214 215 214 211 210 211 213 213 210 209 209 208 210 207 203 205 207 209 210 208 207 209 207 206 209 208 204 205 208 213 219 214 208 211 210 208 213 214 210 215 223 224 226 232 241 250 251 253 263
196 196 199 201 201 201 203 204 206 207 208 210 211 210 211 211 210 210 211 214 214 213 212 211 209 207 207 208 206 207 209 209 212 213 214 214 215 217 216 213 211 211 211 212 211 210 210 211 211 208 204 205 206 208 209 209 208 209 210 208 208 210 208 206 207 209 212 215 212 208 211 216 220 216 211 214 219 220 225 234 242 249 252 258 266
196 197 199 201 201 202 203 204 206 207 209 210 210 211 211 212 211 211 211 212 212 211 211 209 208 208 208 208 207 207 209 211 213 214 215 215 215 217 217 215 213 212 211 211 212 211 212 213 212 209 207 205 206 208 208 207 208 209 210 209 207 208 208 207 207 208 209 215 218 214 215 220 224 222 215 215 221 227 231 238 245 244 240 248 263
196 197 199 200 201 203 203 204 205 207 208 209 209 210 212 212 212 212 212 212 211 211 210 209 208 208 208 208 207 208 209 211 213 215 215 215 215 216 217 216 214 212 211 212 213 214 213 214 214 212 209 207 207 208 207 206 209 210 210 210 209 208 209 209 208 208 211 215 218 221 222 222 226 228 217 213 227 237 238 243 248 238 224 231 254
198 198 199 200 201 203 203 203 204 205 206 207 207 209 210 211 212 212 211 211 212 211 210 207 207 208 208 208 208 208 210 212 213 214 215 215 215 215 215 215 214 212 211 212 214 215 215 215 216 215 212 210 209 209 207 205 207 210 211 209 209 210 210 209 209 210 212 214 218 221 222 221 224 224 213 212 227 237 235 240 251 250 241 240 248
198 199 199 201 202 202 201 201 202 203 204 205 206 207 209 210 211 211 211 211 212 212 210 208 207 207 207 207 207 208 210 212 213 214 215 214 213 214 214 214 214 213 212 212 214 216 216 216 218 218 216 215 215 213 210 209 209 209 209 208 208 209 210 209 208 209 211 213 217 219 220 221 221 221 219 218 227 236 232 233 249 261 263 261 264
199 200 201 202 201 198 197 198 199 200 202 203 204 205 207 208 209 209 210 210 210 210 210 209 208 207 207 206 206 208 210 213 216 217 218 215 212 212 213 212 214 215 213 212 213 215 216 217 218 219 219 220 222 221 219 220 220 215 209 207 206 205 208 211 209 209 211 213 215 217 219 221 220 222 225 225 231 237 231 231 246 259 264 273 282
201 202 203 202 198 194 194 195 196 198 200 202 202 202 204 206 207 208 209 209 210 210 209 209 210 210 209 207 207 209 211 214 217 219 220 219 214 210 210 211 212 215 216 213 213 214 216 218 218 218 219 222 226 228 227 228 228 224 217 213 213 212 210 212 214 213 213 215 217 217 218 221 220 220 225 230 233 230 227 232 242 254 264 276 286
201 203 203 200 195 193 192 193 195 198 200 200 200 200 201 204 207 207 208 209 209 209 209 209 211 211 211 211 211 213 215 216 217 219 221 222 218 212 210 211 212 214 217 216 214 214 215 216 217 216 217 221 225 227 229 230 230 228 223 219 222 223 219 218 220 220 219 220 220 218 217 219 219 220 228 237 232 222 226 234 238 252 266 272 275
201 200 200 198 195 193 193 194 196 198 198 197 197 198 199 203 206 207 208 208 209 210 211 212 215 214 213 216 216 216 217 217 217 218 220 222 221 217 212 213 214 215 218 217 214 214 213 214 216 213 215 221 223 222 226 229 228 228 226 224 226 229 228 226 225 226 227 226 226 225 221 219 219 220 224 226 223 222 229 237 246 255 257 250 256
200 197 196 196 194 193 194 196 197 198 196 194 196 198 201 205 208 208 209 209 211 215 215 216 220 220 218 220 223 221 221 219 218 219 220 222 224 221 216 215 216 217 220 219 216 214 212 212 213 211 211 220 223 218 216 222 224 222 223 224 225 228 230 230 229 231 232 232 232 231 227 222 217 211 203 201 208 222 234 245 251 244 233 238 253
200 197 196 196 194 194 196 198 198 198 196 194 197 200 204 207 209 210 211 211 213 217 218 219 223 223 221 223 226 226 225 221 219 219 220 222 224 223 219 217 219 220 221 221 218 217 215 213 214 213 209 217 225 219 206 205 211 213 214 217 219 220 223 226 228 229 230 232 234 234 232 225 213 200 195 197 208 220 223 230 228 208 218 245 250
201 200 197 196 196 196 197 198 198 198 197 197 200 203 206 209 209 209 212 214 215 217 219 222 224 223 222 223 225 227 228 224 220 220 221 221 223 223 220 217 218 220 220 220 219 220 220 216 213 215 213 217 226 223 209 197 196 200 204 207 210 212 216 222 225 226 227 228 231 234 234 223 207 199 199 199 198 198 193 193 194 194 209 231 242
200 201 200 199 198 198 198 198 198 199 199 200 203 206 208 210 209 208 210 213 215 216 217 221 224 224 223 223 223 226 228 226 224 222 220 219 220 220 218 217 218 219 219 219 220 223 226 219 213 214 215 216 224 224 212 199 192 194 197 199 203 207 210 216 221 224 226 225 225 230 231 222 213 212 212 208 199 188 184 192 203 202 199 207 236
200 201 202 202 199 198 198 199 198 198 200 203 206 207 209 209 208 208 210 212 215 216 215 217 221 223 225 225 224 226 228 227 226 224 221 220 219 217 215 216 218 219 218 219 220 223 227 225 218 215 213 215 223 223 213 202 196 192 192 192 196 203 202 200 205 214 221 221 220 222 223 221 222 221 218 215 210 198 192 199 210 205 196 208 238
204 204 205 203 200 198 198 198 198 199 202 205 206 206 208 210 209 210 212 215 217 218 218 219 221 224 228 229 227 227 229 228 228 226 223 221 219 215 214 216 219 218 216 216 219 222 226 227 224 220 215 216 222 222 213 206 199 193 192 192 195 199 199 193 191 200 209 212 212 215 217 219 221 218 213 214 212 204 198 203 209 199 192 213 236
207 206 204 202 200 198 198 199 201 202 203 204 205 206 207 209 210 211 214 216 218 219 220 221 222 225 228 229 228 228 229 230 231 228 224 222 220 216 214 217 218 216 213 213 217 219 221 224 225 223 219 218 221 219 213 209 201 192 191 194 195 196 195 193 191 194 201 204 203 205 209 210 207 205 206 208 207 204 201 202 203 190 186 208 228
203 202 201 201 201 200 200 202 203 203 204 203 204 207 209 210 211 212 214 216 217 218 218 219 223 227 229 228 229 230 230 229 231 231 227 223 220 216 215 218 219 215 211 212 215 217 217 219 223 223 220 218 219 217 213 210 203 195 195 198 199 196 193 190 189 192 198 203 201 197 197 200 200 200 199 198 199 200 198 197 196 188 188 204 224
202 199 197 199 202 201 201 202 201 202 203 203 204 208 210 211 212 213 215 216 216 217 217 218 223 228 231 232 232 234 233 228 228 231 229 224 220 217 216 218 220 216 212 212 214 215 214 213 215 218 219 217 216 215 212 209 205 201 202 203 200 195 191 186 185 190 197 200 199 198 199 203 208 208 200 193 193 193 192 192 191 188 192 200 209
199 198 197 199 200 201 200 199 199 200 202 202 204 207 208 211 213 213 215 216 217 219 221 222 225 229 232 234 234 234 234 230 227 228 228 225 222 219 218 218 218 216 214 213 212 212 210 206 207 213 216 214 212 211 209 205 205 205 203 201 199 195 191 186 185 190 193 194 196 198 200 207 213 209 199 193 191 188 186 187 187 186 193 199 201
191 195 198 199 199 201 202 200 200 202 203 204 207 209 210 212 213 213 215 217 221 226 227 227 228 230 232 235 235 234 233 232 229 227 227 226 223 221 220 219 218 217 218 218 216 212 208 204 206 210 211 209 208 207 205 203 205 204 201 199 198 195 191 189 189 190 187 187 191 195 200 209 213 205 197 193 187 181 181 182 183 186 193 201 210
188 193 195 197 199 201 202 202 203 206 206 206 208 210 211 212 212 214 218 221 225 230 232 231 231 231 230 233 235 234 232 231 230 228 226 225 224 222 221 220 218 217 218 221 222 219 213 209 208 207 206 205 202 199 201 204 205 203 200 198 197 194 192 190 190 190 185 182 187 195 203 210 209 200 193 187 178 176 177 178 182 189 197 207 219
189 193 194 195 197 198 201 204 206 209 211 212 213 214 214 214 215 217 221 224 226 229 232 233 233 232 231 233 235 236 234 231 230 228 225 223 223 223 223 221 220 218 218 219 221 221 218 212 206 202 201 199 195 193 197 200 200 199 199 198 197 195 193 189 188 187 184 182 187 197 206 207 201 192 185 178 173 174 177 179 185 193 203 216 225
180 181 181 183 187 193 199 204 206 210 212 214 217 220 222 224 225 225 227 228 230 231 232 234 235 233 233 235 236 237 236 233 229 224 221 219 220 221 221 220 220 218 218 218 218 219 219 213 207 202 199 196 192 191 193 193 193 193 195 197 198 196 193 190 188 185 183 183 190 200 204 200 190 181 177 176 176 177 179 184 191 200 215 228 233
158 163 167 170 176 184 191 196 203 210 213 216 220 224 226 229 231 232 231 231 232 235 235 234 235 236 236 238 238 237 237 235 231 223 218 217 217 216 218 219 218 217 218 217 215 213 210 203 197 195 192 188 185 184 185 187 188 189 191 194 197 196 192 189 186 183 182 186 194 199 196 189 183 180 180 180 180 181 184 189 197 208 224 232 232
135 146 157 163 168 176 183 190 200 211 218 222 226 229 230 233 236 238 237 235 236 240 242 240 239 240 241 242 241 241 239 238 236 232 225 222 220 218 219 220 218 218 219 218 212 204 193 184 181 181 181 180 178 177 179 182 183 184 187 190 191 192 190 185 181 179 180 185 192 193 186 182 182 183 183 183 184 187 190 194 199 209 219 224 229
127 135 142 144 148 163 177 184 194 209 219 223 228 233 234 235 237 242 244 243 242 244 246 248 248 249 251 249 245 245 246 246 244 239 232 229 227 225 224 223 221 219 218 213 204 193 182 175 174 177 178 176 175 174 174 176 177 178 181 183 185 188 188 184 181 178 177 182 188 188 184 183 184 183 183 184 186 190 193 197 204 210 213 221 232
113 113 110 101 100 116 144 161 180 208 225 233 240 246 247 242 241 246 250 252 252 250 249 249 249 251 254 255 253 252 251 251 250 244 237 234 231 228 227 225 220 216 212 205 194 183 178 175 176 179 179 177 175 173 173 175 177 177 177 177 181 185 185 183 182 177 173 177 185 187 187 187 183 182 185 187 188 192 195 200 210 216 217 224 235
82 84 82 79 73 72 85 96 98 180 231 251 257 261 267 263 256 258 262 264 264 264 262 260 258 256 256 257 259 260 256 254 253 249 242 237 233 231 229 224 216 211 208 202 191 181 179 179 180 179 178 177 176 175 176 177 176 174 171 170 175 181 182 182 179 175 172 177 184 188 189 188 184 184 188 190 192 199 202 204 212 222 223 227 235
58 57 53 57 56 50 55 62 52 45 39 341 301 279 280 283 282 285 286 283 281 278 274 270 267 265 263 262 263 263 262 259 256 253 248 240 234 230 226 220 213 209 205 197 187 182 183 183 181 180 178 176 175 174 174 174 170 166 166 166 170 176 179 177 174 172 174 181 186 189 189 188 186 187 191 192 196 206 213 214 219 228 230 230 232
53 47 37 36 39 36 34 35 29 26 24 7 344 327 315 311 308 304 300 297 293 287 281 278 275 273 272 270 269 268 267 264 261 258 253 245 237 231 224 216 209 206 202 194 186 186 188 186 183 180 177 174 174 173 171 169 165 164 165 167 168 172 175 173 172 173 178 183 188 189 189 189 189 189 192 194 198 211 224 226 226 231 234 233 232
62 60 47 38 38 38 33 29 26 21 15 8 359 348 337 327 317 308 301 299 297 292 291 294 295 293 290 288 285 282 279 275 271 267 261 252 241 229 216 204 198 198 198 192 187 187 190 187 182 178 174 171 170 168 164 162 161 162 165 166 167 169 171 172 173 177 180 183 187 190 190 190 191 191 193 197 204 217 228 229 226 228 231 232 232
52 58 51 41 41 44 41 35 31 24 13 1 353 347 342 336 326 315 306 301 299 300 302 305 306 303 298 294 291 289 287 283 279 276 270 260 244 224 205 192 189 191 193 189 183 184 186 182 176 171 166 161 159 158 156 157 161 165 167 167 167 168 171 173 175 178 180 182 187 189 188 188 189 190 194 203 213 222 227 225 221 222 224 227 230
40 38 36 34 35 40 43 37 31 25 15 4 355 351 349 344 335 326 318 312 311 312 312 314 317 315 308 301 297 298 296 290 283 276 272 262 242 218 204 196 192 189 186 182 177 176 176 172 165 160 157 156 156 158 158 161 165 169 170 169 169 170 173 176 177 177 177 180 185 187 187 188 189 191 199 211 219 223 223 219 218 221 222 222 226
43 38 35 36 37 38 38 35 29 22 16 10 6 2 357 350 342 332 324 322 325 327 326 328 331 328 321 316 314 311 307 304 298 288 280 262 231 215 210 206 196 185 177 173 173 171 166 162 159 156 155 157 158 158 159 161 165 168 169 169 171 174 176 175 176 177 179 182 186 186 186 188 189 195 208 217 216 215 217 216 217 220 218 214 218
46 42 37 37 44 46 41 34 29 22 16 11 10 8 360 351 344 338 332 332 338 343 344 343 340 334 328 326 326 325 321 321 322 314 294 247 216 210 210 202 188 178 171 169 168 163 157 155 155 153 153 154 155 156 158 161 165 167 168 169 173 177 176 173 173 178 182 186 188 186 186 191 196 203 213 215 209 209 214 215 215 218 216 211 215
44 41 35 31 36 44 42 37 32 25 15 6 6 7 359 348 341 337 334 338 346 351 352 350 343 338 334 330 328 329 331 333 331 316 278 213 199 198 190 180 177 175 169 162 157 151 148 148 147 145 147 152 156 158 160 163 166 168 170 172 174 175 174 173 176 181 185 188 189 188 189 195 200 203 207 209 209 211 213 211 212 217 219 218 216
40 40 36 31 29 31 35 33 28 23 15 5 359 356 349 341 337 335 335 342 351 353 355 357 353 346 344 347 351 355 360 3 9 36 95 123 134 137 139 153 165 167 160 153 147 143 142 142 142 145 150 157 161 161 162 165 168 171 173 175 174 172 173 177 180 183 185 189 190 190 191 193 193 195 200 205 209 211 210 210 213 215 218 223 222
41 38 35 32 31 32 32 27 20 16 11 3 355 349 342 335 333 334 335 341 351 356 0 4 0 357 2 15 28 37 43 47 54 72 93 109 112 104 96 98 107 118 127 131 132 135 139 142 147 152 156 160 161 162 163 167 171 172 173 174 174 173 176 179 181 183 187 190 190 190 190 190 191 196 201 204 207 209 209 211 214 215 218 222 223
42 39 35 34 33 32 28 22 18 17 12 2 353 348 342 334 333 338 339 337 341 350 1 9 7 9 20 32 37 47 61 67 68 74 89 106 113 112 111 113 114 114 116 119 125 133 141 145 149 153 157 160 162 164 167 171 172 171 171 173 175 175 177 180 182 184 186 188 188 189 189 190 192 196 201 203 205 208 210 211 215 219 222 223 221
42 41 39 37 34 32 29 22 18 16 10 359 351 351 348 340 337 341 345 345 342 342 355 14 10 7 17 24 26 38 59 70 72 74 79 88 98 103 108 113 116 116 116 119 129 140 145 146 146 151 157 163 166 168 171 174 174 174 174 175 176 176 178 181 183 183 185 187 187 188 190 192 193 196 200 203 205 208 211 212 215 221 225 226 225
44 42 41 39 36 34 32 26 21 18 12 4 358 355 353 348 343 344 351 358 360 3 15 21 5 354 355 8 22 33 44 56 70 79 80 82 90 98 105 111 114 116 119 126 136 145 148 148 148 152 158 164 168 171 173 175 177 177 177 175 175 177 180 182 183 183 184 186 187 187 190 193 195 198 201 203 205 210 215 215 216 221 225 227 228
46 44 42 41 40 38 35 30 28 27 23 15 7 2 0 358 353 349 355 3 7 16 27 27 4 349 344 342 2 30 42 52 68 81 89 99 102 101 104 111 114 118 128 138 145 149 152 155 158 158 158 160 164 167 168 169 171 173 173 174 175 177 179 180 180 181 183 185 187 189 192 195 197 200 204 206 208 212 217 219 221 223 224 226 228
47 43 39 38 40 40 38 35 33 32 32 28 20 12 10 8 2 358 1 5 7 14 27 41 42 18 1 356 10 38 43 46 60 73 77 84 96 104 113 120 123 125 137 148 153 155 158 161 163 162 160 160 161 161 162 163 166 168 170 172 175 176 177 178 179 180 182 185 188 191 193 196 199 202 205 210 213 215 217 221 225 227 225 224 227
48 47 43 41 41 39 37 35 33 30 30 32 30 27 24 21 17 14 11 9 10 15 20 29 44 38 20 13 18 27 29 23 24 56 75 84 110 131 134 134 134 137 146 154 158 160 161 162 162 162 161 161 160 159 160 161 165 168 170 172 174 176 176 176 176 178 180 184 188 193 195 198 202 204 205 209 215 220 223 225 228 229 227 224 224
46 46 44 43 43 41 39 38 37 34 30 29 29 29 29 28 27 26 23 20 19 19 21 24 30 33 32 26 22 26 31 26 7 349 45 119 161 160 149 140 139 144 150 155 160 163 164 162 159 157 158 159 159 160 162 164 167 169 171 173 176 178 176 172 172 176 179 181 186 193 196 199 203 208 212 215 218 223 228 231 231 230 227 224 222
46 45 44 42 41 41 40 41 41 40 35 30 28 27 27 25 24 25 27 31 31 27 24 26 30 33 35 36 32 34 40 38 23 14 31 94 210 195 162 140 138 146 150 151 153 155 157 156 155 154 156 158 159 160 162 164 166 168 173 177 179 178 176 174 174 177 178 179 184 191 195 199 206 212 218 222 224 225 228 231 229 227 224 222 221
47 47 47 45 43 42 42 41 40 37 34 33 33 33 31 27 23 21 24 32 38 36 32 33 38 41 42 42 40 42 47 47 38 32 36 41 250 225 179 132 122 122 126 132 138 141 145 149 151 153 155 158 161 162 164 165 167 171 176 179 179 179 179 180 180 179 179 180 184 190 194 201 208 214 218 222 224 225 225 225 223 221 220 219 220